Regional Weather Roundup
Issued by NWS Wilmington, NC

Home | Current Version | Previous Version | Text Only | Print | Product List | Glossary On
Versions: 1 2 3 4 5 6 7 8 9 10 11 12 13 14 15 16 17 18 19 20 21 22 23 24 25 26 27 28 29 30 31 32 33 34 35 36 37 38 39 40 41 42 43 44 45 46 47 48 49 50
000
ASUS42 KILM 231113
RWRILM
RWRILM
REGIONAL HOURLY WEATHER ROUNDUP
NATIONAL WEATHER SERVICE WILMINGTON NC
600 AM EST MON JAN 23 2017

NOTE: "FAIR" INDICATES FEW OR NO CLOUDS BELOW 12,000 FEET WITH NO
SIGNIFICANT WEATHER AND/OR OBSTRUCTIONS TO VISIBILITY.

...............WFO WILMINGTON COUNTY WARNING AREA...............

......COASTAL NC AND SC COUNTIES......

CITY           SKY/WX    TMP DP  RH WIND       PRES   REMARKS
WILMINGTON     CLEAR     57  53  86 SW13      29.28R
N MYRTLE BEACH CLEAR     52  48  86 SW6       29.30R
MYRTLE BEACH   CLEAR     54  46  76 SW8       29.32S

......INLAND NC AND SC COUNTIES.......

CITY           SKY/WX    TMP DP  RH WIND       PRES   REMARKS
LUMBERTON      CLEAR     53  50  89 SW10      29.26R
ELIZABETHTOWN  CLEAR     54  50  87 SW6       29.27R
WHITEVILLE     CLEAR     54  48  82 SW7       29.28R
FLORENCE       CLEAR     51  49  92 S7        29.28R
DARLINGTON     NOT AVBL
KINGSTREE      FAIR      46  45  93 SE5       29.29S
HARTSVILLE     FAIR      46  46 100 SW3       29.25S
BENNETTSVILLE  FAIR      54  52  94 S6        29.26R
CONWAY         FAIR      48  46  93 S3        29.30S FOG
GEORGETOWN     FAIR      46  46 100 CALM      29.32S
MARION         FAIR      50  46  87 S7        29.28S

....................REST OF NORTH CAROLINA......................

.........EASTERN NC.........

CITY           SKY/WX    TMP DP  RH WIND       PRES   REMARKS
CAPE HATTERAS  RAIN      66  63  90 S21       29.27S FOG
JACKSONVILLE   FOG       55  55 100 S6        29.26R VSB 1
MOREHEAD CITY  CLOUDY    62  59  90 SW16      29.27R
KENANSVILLE    PTCLDY    57  57 100 CALM      29.24R FOG
NEW BERN       CLOUDY    56  55  97 S3        29.27R
ELIZABETH CITY LGT RAIN  54  54 100 E12       29.30F

.........CENTRAL NC.........

CITY           SKY/WX    TMP DP  RH WIND       PRES   REMARKS
RALEIGH DURHAM HVY RAIN  53  52  96 E12G20    29.21R FOG
ROCKY MOUNT    CLOUDY    53  53 100 VRB7      29.25R
ROANOKE RAPIDS NOT AVBL
FAYETTEVILLE   PTCLDY    56  52  86 SW14      29.23R
HOFFMAN        CLEAR     52  48  87 SW10      29.24R

.........WESTERN NC.........

CITY           SKY/WX    TMP DP  RH WIND       PRES   REMARKS
CHARLOTTE      PTCLDY    49  46  90 SW10      29.21S
GREENSBORO     LGT RAIN  50  50 100 E6        29.20R FOG
HICKORY        NOT AVBL
BOONE          NOT AVBL
ASHEVILLE      NOT AVBL

.....................REST OF SOUTH CAROLINA.....................

.........EASTERN SC.........

CITY           SKY/WX    TMP DP  RH WIND       PRES   REMARKS
CHARLESTON     PTCLDY    53  49  86 S12       29.29F
BEAUFORT MCAS  CLEAR     54  49  83 SW12      29.29S
HILTON HEAD    NOT AVBL

.........CENTRAL SC.........

CITY           SKY/WX    TMP DP  RH WIND       PRES   REMARKS
COLUMBIA       MOCLDY    50  47  89 E3        29.23S
ORANGEBURG     CLEAR     50  48  93 S9        29.25F
SUMTER SHAW    CLEAR     47  45  93 CALM      29.24S

.........WESTERN SC.........

CITY           SKY/WX    TMP DP  RH WIND       PRES   REMARKS
GREENVILLE     NOT AVBL
ROCK HILL      PTCLDY    48  46  93 S7        29.22R
ANDERSON       PTCLDY    48  46  93 S6        29.21S
CLEMSON        NOT AVBL
GREENWOOD      CLOUDY    48  46  93 CALM      29.24R


...................COASTAL AND OFFSHORE REPORTS..................

................LOCAL PIERS AND NC RESERVE................


STATION/POSITION TIME  SKY/WX   TEMP    WIND        PRES    VSBY
                                AIR SEA DIR/SP/G
                 (UTC)          (F)     (DEG/KT/KT) (MB)    (MI)
JOHNY MRCER PIER 1042            58 56  220/ 15/ 18  990.0R
NC RESRV MASNBRO 0945            59     260/  6      990.0
OCEAN CREST PIER NOT AVBL
SPRINGMAID  PIER NOT AVBL


................COASTAL AND OFFSHORE BUOYS................


STATION/POSITION TIME  SKY/WX   TEMP    WIND        PRES    VSBY
                                AIR SEA DIR/SP/G
                 (UTC)          (F)     (DEG/KT/KT) (MB)    (MI)
DIMNDSHOAL 41025 1050            71 72  170/ 25/ 31  991.1F
WVE H/P(F/S)= 10/ 6 SWL H/P/D(F/S/D)=  3/ 30/13

CAPE LOOKOUT     1100            62     230/ 12/ 16  991.0R
ONSLOW BAY 41036 NOT AVBL
ONSLOW BAY 41064 1008            65 70  240/ 25/ 31  991.0R
ONSLOW BAY 41159 1043               70                N/A
WVE H/P(F/S)=  9/ 8 SWL H/P/D(F/S/D)=  2/ 90/14

MASNBO INL 41110 1059               54                N/A
WVE H/P(F/S)=  7/ 8 SWL H/P/D(F/S/D)=  2/110/13

WILM HARBR 41108 1056               57                N/A
WVE H/P(F/S)=  8/ 6 SWL H/P/D(F/S/D)=  2/160/11

27SE WRITB 41037 1008            63 67  220/ 23/ 31  989.4R
FRYING PAN 41013 1050            62 69  240/ 21/ 27  993.1R
WVE H/P(F/S)= 11/ 8 SWL H/P/D(F/S/D)=  7/200/ 8

SUNST NRSH 41024 1008            56 55  260/ 16/ 21  991.3F
CAPRS NRSH 41029 NOT AVBL
EDISTO     41004 0950            63 66  250/ 17/ 21  992.6
WVE H/P(F/S)= 10/ 8 SWL H/P/D(F/S/D)=  8/190/ 8



..........OFFSHORE BUOYS BEYOND 100 NM OFFSHORE...........
.....IN A TRIANGLE---HAT TO BERMUDA TO BAHAMAS TO HAT.....


STATION/POSITION TIME  SKY/WX   TEMP    WIND        PRES    VSBY
                                AIR SEA DIR/SP/G
                 (UTC)          (F)     (DEG/KT/KT) (MB)    (MI)
150E HAT   41001 NOT AVBL
W BERMUDA  41048 1050            71 70  190/ 19/ 23 1005.4R
WVE H/P(F/S)=  8/ 7 SWL H/P/D(F/S/D)=  3/ 60/13

ATLANTIC S 41049 1050            72 74  200/ 10/ 12 1014.8R
WVE H/P(F/S)=  7/13 SWL H/P/D(F/S/D)=  7/ 30/13

E BAHAMAS  41046 1100            76 77  160/ 19/ 23 1010.3
NE BAHAMAS 41047 1100            74 74  190/ 21/ 27 1007.6
120E CANVRL41010 NOT AVBL

END



USA.gov is the U.S. government's official web portal to all federal, state and local government web resources and services.